Volver al catálogo

STARLINK-3971

ActivoComunicacionesVLEO
NORAD 52642·PAYLOAD·🇺🇸 United States

Lanzado May 14, 2022 desde Cape Canaveral Space Force Station

Loading…

Próximos Pases (próximas 24 horas)

TLE

ActualizadoSource: CelesTrak SupGP

Época: Sep 15, 2026, 01:22 UTC

1 52642C 22052AW  26258.05743056  .00046425  00000+0  13286-2 0  2583
2 52642  53.1571 117.2115 0001260  81.8892 280.3572 15.35367544    17

Sigue STARLINK-3971 en tiempo real con AllMySat

Download on the App Store